Regional Weather Roundup
Issued by NWS Green Bay, WI

Home | Current Version | Previous Version | Text Only | Print | Product List | Glossary On
Versions: 1 2 3 4 5 6 7 8 9 10 11 12 13 14 15 16 17 18 19 20 21 22 23 24 25 26 27 28 29 30 31 32 33 34 35 36 37 38 39 40 41 42 43 44 45 46 47 48 49 50
000
ASUS43 KGRB 310411
RWRGRB

NORTH-CENTRAL AND NORTHEAST WISCONSIN REGIONAL WEATHER ROUNDUP
NATIONAL WEATHER SERVICE GREEN BAY WI
1100 PM CDT TUE AUG 30 2016

WIZ005-009-010>012-018-019-310500-
NORTH CENTRAL WISCONSIN

CITY           SKY/WX    TMP DP  RH WIND       PRES   REMARKS
IRONWOOD       CLEAR     54  53  97 CALM      30.16S
MANITOWISH WTR CLEAR     48  48 100 CALM      30.16S
ARBOR VITAE    CLEAR     53  51  92 CALM      30.16R
EAGLE RIVER    CLEAR     50  50 100 CALM      30.15S
LAND O LAKES   CLEAR     49  48  99 CALM      30.16S
RHINELANDER    CLEAR     53  49  86 CALM      30.16S
PHILLIPS       CLEAR     55  55 100 CALM      30.16S
ANTIGO         CLEAR     55  51  85 N5        30.15S
TOMAHAWK       CLEAR     50  48  92 CALM      30.16S
MERRILL        CLEAR     55  51  86 CALM      30.15S
$$

WIZ013-073-310500-
NORTHEAST WISCONSIN

CITY           SKY/WX    TMP DP  RH WIND       PRES   REMARKS
IRON MOUNTAIN  CLEAR     56  50  80 N3        30.12R
MARINETTE      CLEAR    N/A N/A N/A NE6       30.11
OCONTO         CLEAR     66  61  84 NE8       30.10R
$$

WIZ017-030-035>037-045-310500-
CENTRAL WISCONSIN

CITY           SKY/WX    TMP DP  RH WIND       PRES   REMARKS
MEDFORD        CLEAR     57  55  92 NE3       30.15S
WAUSAU         CLEAR     64  49  57 VRB5      30.13R
MOSINEE        CLEAR     63  52  67 N7        30.15R
MARSHFIELD     CLEAR     65  55  70 N8        30.14R
WISC RAPIDS    PTCLDY    66  61  84 N8        30.13R
STEVENS POINT  CLEAR     63  57  81 N5        30.13R
WAUPACA        PTCLDY    68  63  83 NW5       30.10R
SHAWANO        CLEAR     69  60  73 N12       30.11R
CLINTONVILLE   CLEAR     68  57  68 N7        30.10R
WAUTOMA        MOCLDY    69  63  81 NW5       30.10R
$$

WIZ038-039-048-051-310500-
FOX VALLEY

CITY           SKY/WX    TMP DP  RH WIND       PRES   REMARKS
NWS GREEN BAY  PTCLDY    70  66  87 N13       30.08R
APPLETON       MOCLDY    72  59  64 N10       30.07S
OSHKOSH        MOCLDY    71  63  75 N6        30.07R
FOND DU LAC    MOCLDY    70  65  84 NW5       30.07R
$$

WIZ022-050-052-310500-
EAST CENTRAL WISCONSIN

CITY           SKY/WX    TMP DP  RH WIND       PRES   REMARKS
EPHRAIM        FAIR      66  55  68 N13G21    30.10R
WASHINGTON ISL NOT AVBL
STURGEON BAY   NOT AVBL
MANITOWOC      CLOUDY    73  64  73 N15G22    30.06R
SHEBOYGAN      CLEAR     70  65  84 N8        30.05S
$$

LMZ563-521-522-541>543-310500-
LAKESHORE

STATION/POSITION TIME  TEMP    WIND        PRES    VSBY  WAVE
                       AIR SEA DIR/SP/G                  HT/PER
                 (UTC) (F)     (DEG/KT/KT) (MB)    (MI)  (FT/S)
SHEBOYGAN LKSHOR 0400   74     340/  9/ 10 1016.9R
KEWAUNEE LKSHORE 0300   73      20/ 11/ 15 1017.3R
ALGOMA MARINA    0300           30/ 13/ 22   N/A
NORTHPORT PIER   0300   69      10/ 14/ 17 1018.6R
N MID LAKE BUOY  0350   68 71   10/ 17/ 19 1017.8R         3/ 4
CHAMBERS ISLAND  0340   69     360/ 18/ 21 1018.6R
MENOMINEE LKSHOR 0300   68      10/ 16/ 19 1018.0R
$$



USA.gov is the U.S. government's official web portal to all federal, state and local government web resources and services.